N4XWC Weather Reports


time (UTC)temp
C
wind
direction
speed
KPH
gust
KPH
rain 1hr
cm
rain 24hr
cm
rain mn
cm
humidity
%
barometer
mb
20210224230216 21 248 9.7 9.7 0.00 0.00 0.00 18 1016.7
20210224225719 21 243 16.1 16.1 0.00 0.00 0.00 18 1016.6
20210224225522 21 213 6.4 11.3 0.00 0.00 0.00 18 1016.6
20210224225215 21 227 3.2 4.8 0.00 0.00 0.00 17 1016.6
20210224224727 21 282 14.5 24.1 0.00 0.00 0.00 17 1016.6
20210224224521 21 260 11.3 16.1 0.00 0.00 0.00 17 1016.6
20210224224215 21 232 16.1 17.7 0.00 0.00 0.00 17 1016.4
20210224223717 21 268 4.8 12.9 0.00 0.00 0.00 17 1016.4
20210224223512 21 208 16.1 16.1 0.00 0.00 0.00 17 1016.4
20210224223218 21 205 0.0 8.0 0.00 0.00 0.00 18 1016.4
20210224222930 21 184 6.4 14.5 0.00 0.00 0.00 17 1016.4
20210224222652 21 205 1.6 4.8 0.00 0.00 0.00 17 1016.4
20210224222226 21 263 1.6 9.7 0.00 0.00 0.00 17 1016.4
20210224221721 22 226 4.8 16.1 0.00 0.00 0.00 16 1016.4
20210224221521 22 224 16.1 17.7 0.00 0.00 0.00 17 1016.4
20210224221218 21 232 1.6 8.0 0.00 0.00 0.00 16 1016.5
20210224220717 21 275 8.0 16.1 0.00 0.00 0.00 17 1016.5
20210224220519 21 260 4.8 11.3 0.00 0.00 0.00 16 1016.5
20210224220217 22 243 9.7 9.7 0.00 0.00 0.00 17 1016.5
20210224215720 22 246 6.4 11.3 0.00 0.00 0.00 17 1016.6
20210224215521 22 234 11.3 16.1 0.00 0.00 0.00 18 1016.6
20210224215419 22 247 4.8 16.1 0.00 0.00 0.00 18 1016.6
20210224214717 21 210 4.8 22.5 0.00 0.00 0.00 17 1016.6
20210224214520 21 202 16.1 19.3 0.00 0.00 0.00 18 1016.6
20210224214215 21 205 6.4 14.5 0.00 0.00 0.00 18 1016.7
20210224213715 22 206 16.1 24.1 0.00 0.00 0.00 18 1016.7
20210224213518 22 260 14.5 17.7 0.00 0.00 0.00 18 1016.7
20210224213217 22 281 6.4 16.1 0.00 0.00 0.00 18 1016.7
20210224212911 22 195 12.9 16.1 0.00 0.00 0.00 18 1016.8
20210224212600 22 244 9.7 16.1 0.00 0.00 0.00 18 1016.8
20210224212220 22 240 9.7 17.7 0.00 0.00 0.00 19 1016.8
20210224211717 21 240 4.8 9.7 0.00 0.00 0.00 19 1016.8
20210224211522 21 227 17.7 20.9 0.00 0.00 0.00 19 1016.8
20210224211218 21 243 4.8 16.1 0.00 0.00 0.00 19 1016.8
20210224210715 21 233 12.9 17.7 0.00 0.00 0.00 19 1016.8
20210224210522 21 219 6.4 16.1 0.00 0.00 0.00 19 1016.8
20210224210217 21 198 11.3 25.7 0.00 0.00 0.00 19 1016.8
20210224205717 21 215 14.5 16.1 0.00 0.00 0.00 19 1016.8
20210224205513 21 167 6.4 11.3 0.00 0.00 0.00 19 1016.8
20210224205318 22 196 16.1 19.3 0.00 0.00 0.00 18 1016.8
20210224204717 21 203 3.2 6.4 0.00 0.00 0.00 20 1016.8
20210224204518 21 264 8.0 9.7 0.00 0.00 0.00 19 1016.8
20210224204216 21 210 16.1 25.7 0.00 0.00 0.00 19 1016.8
20210224203716 21 199 8.0 14.5 0.00 0.00 0.00 20 1016.8
20210224203519 21 215 9.7 22.5 0.00 0.00 0.00 20 1016.8
20210224203216 21 237 16.1 16.1 0.00 0.00 0.00 20 1016.8
20210224202857 21 232 4.8 16.1 0.00 0.00 0.00 19 1016.7
20210224202556 21 222 9.7 16.1 0.00 0.00 0.00 19 1016.7
20210224202217 21 215 6.4 12.9 0.00 0.00 0.00 19 1016.7
20210224201717 21 229 17.7 17.7 0.00 0.00 0.00 20 1016.7
20210224201511 21 216 4.8 17.7 0.00 0.00 0.00 19 1016.7
20210224201222 21 239 14.5 22.5 0.00 0.00 0.00 19 1016.7
20210224200717 21 217 16.1 22.5 0.00 0.00 0.00 18 1016.7
20210224200520 21 178 4.8 14.5 0.00 0.00 0.00 19 1016.7
20210224200217 21 223 17.7 17.7 0.00 0.00 0.00 18 1016.7
20210224195730 21 229 6.4 11.3 0.00 0.00 0.00 19 1016.8
20210224195523 21 236 4.8 8.0 0.00 0.00 0.00 20 1016.8
20210224195400 21 188 6.4 8.0 0.00 0.00 0.00 20 1016.8
20210224194752 21 191 9.7 14.5 0.00 0.00 0.00 19 1016.8
20210224194518 21 206 3.2 14.5 0.00 0.00 0.00 19 1016.8
20210224194222 21 253 8.0 16.1 0.00 0.00 0.00 19 1017.0
20210224193716 21 212 3.2 4.8 0.00 0.00 0.00 20 1017.0
20210224193532 21 239 14.5 22.5 0.00 0.00 0.00 20 1017.0
20210224193230 21 198 3.2 11.3 0.00 0.00 0.00 19 1017.0
20210224192909 21 208 14.5 19.3 0.00 0.00 0.00 19 1017.2
20210224192541 21 224 17.7 17.7 0.00 0.00 0.00 19 1017.2
20210224192217 21 185 3.2 8.0 0.00 0.00 0.00 20 1017.2
20210224191717 21 219 16.1 17.7 0.00 0.00 0.00 19 1017.2
20210224191513 21 203 17.7 27.4 0.00 0.00 0.00 19 1017.2
20210224191216 21 192 8.0 19.3 0.00 0.00 0.00 18 1017.5
20210224190719 21 188 4.8 16.1 0.00 0.00 0.00 19 1017.5
20210224190515 20 157 8.0 8.0 0.00 0.00 0.00 19 1017.5
20210224190215 20 199 19.3 19.3 0.00 0.00 0.00 19 1017.5
20210224185717 20 246 8.0 16.1 0.00 0.00 0.00 18 1017.9
20210224185509 20 199 3.2 16.1 0.00 0.00 0.00 19 1017.9
20210224185357 20 198 14.5 24.1 0.00 0.00 0.00 19 1017.9
20210224184729 20 216 1.6 8.0 0.00 0.00 0.00 19 1017.9
20210224184518 20 258 12.9 16.1 0.00 0.00 0.00 19 1017.9
20210224184215 20 200 8.0 9.7 0.00 0.00 0.00 19 1018.2
20210224183715 20 212 8.0 16.1 0.00 0.00 0.00 19 1018.2
20210224183521 20 234 16.1 22.5 0.00 0.00 0.00 18 1018.2
20210224183217 20 220 4.8 27.4 0.00 0.00 0.00 18 1018.2
20210224182854 20 251 8.0 16.1 0.00 0.00 0.00 18 1018.5
20210224182548 20 250 9.7 9.7 0.00 0.00 0.00 20 1018.5
20210224182217 19 292 4.8 11.3 0.00 0.00 0.00 19 1018.5
20210224181731 19 219 14.5 22.5 0.00 0.00 0.00 19 1018.5
20210224181718 19 219 14.5 22.5 0.00 0.00 0.00 19 1018.5
20210224181528 19 202 8.0 9.7 0.00 0.00 0.00 20 1018.5
20210224181217 19 240 9.7 9.7 0.00 0.00 0.00 20 1018.9
20210224180716 19 230 24.1 24.1 0.00 0.00 0.00 20 1018.9
20210224180526 19 220 11.3 11.3 0.00 0.00 0.00 21 1018.9
20210224180218 19 210 6.4 9.7 0.00 0.00 0.00 21 1018.9
20210224175718 18 258 11.3 19.3 0.00 0.00 0.00 20 1019.2
20210224175520 18 236 22.5 22.5 0.00 0.00 0.00 20 1019.2
20210224175328 18 247 3.2 16.1 0.00 0.00 0.00 21 1019.2
20210224174719 18 239 9.7 11.3 0.00 0.00 0.00 22 1019.2
20210224174530 18 206 9.7 16.1 0.00 0.00 0.00 21 1019.2
20210224174220 18 216 16.1 25.7 0.00 0.00 0.00 20 1019.4
20210224173716 18 236 3.2 4.8 0.00 0.00 0.00 22 1019.4
20210224173517 18 217 8.0 16.1 0.00 0.00 0.00 23 1019.4
20210224173216 18 239 6.4 6.4 0.00 0.00 0.00 22 1019.4
20210224172811 17 247 4.8 17.7 0.00 0.00 0.00 22 1019.8
20210224172522 17 248 16.1 19.3 0.00 0.00 0.00 24 1019.8
20210224172216 17 232 1.6 14.5 0.00 0.00 0.00 26 1019.8
20210224171754 17 248 16.1 17.7 0.00 0.00 0.00 25 1019.8
20210224171520 17 220 11.3 19.3 0.00 0.00 0.00 24 1019.8
20210224171215 17 224 14.5 16.1 0.00 0.00 0.00 25 1020.0
20210224170716 17 256 9.7 19.3 0.00 0.00 0.00 25 1020.0
20210224170521 17 198 6.4 22.5 0.00 0.00 0.00 25 1020.0
20210224170217 17 219 4.8 8.0 0.00 0.00 0.00 26 1020.0
20210224165721 17 206 8.0 17.7 0.00 0.00 0.00 24 1020.3
20210224165523 17 227 11.3 24.1 0.00 0.00 0.00 26 1020.3
20210224165308 16 189 4.8 11.3 0.00 0.00 0.00 28 1020.3
20210224164723 16 258 9.7 16.1 0.00 0.00 0.00 27 1020.3
20210224164522 16 178 4.8 9.7 0.00 0.00 0.00 27 1020.3
20210224164225 16 237 1.6 14.5 0.00 0.00 0.00 28 1020.4
20210224163723 16 230 12.9 16.1 0.00 0.00 0.00 28 1020.4
20210224163510 16 216 16.1 16.1 0.00 0.00 0.00 28 1020.4
20210224163218 16 189 6.4 16.1 0.00 0.00 0.00 27 1020.4
20210224162733 16 213 4.8 8.0 0.00 0.00 0.00 29 1020.6
20210224162532 15 260 8.0 8.0 0.00 0.00 0.00 28 1020.6
20210224162218 15 227 11.3 16.1 0.00 0.00 0.00 31 1020.6
20210224161727 15 210 16.1 16.1 0.00 0.00 0.00 29 1020.6
20210224161515 15 224 4.8 8.0 0.00 0.00 0.00 30 1020.6
20210224161216 15 226 1.6 9.7 0.00 0.00 0.00 32 1020.6
20210224160717 15 172 3.2 4.8 0.00 0.00 0.00 33 1020.6
20210224160518 15 215 9.7 11.3 0.00 0.00 0.00 34 1020.6
20210224160216 15 233 3.2 8.0 0.00 0.00 0.00 34 1020.6
20210224155717 15 203 6.4 9.7 0.00 0.00 0.00 35 1020.7
20210224155522 14 193 3.2 8.0 0.00 0.00 0.00 35 1020.7
20210224155334 14 219 3.2 6.4 0.00 0.00 0.00 36 1020.7
20210224154729 14 162 4.8 9.7 0.00 0.00 0.00 36 1020.7
20210224154522 14 161 3.2 3.2 0.00 0.00 0.00 37 1020.7
20210224154218 13 162 4.8 6.4 0.00 0.00 0.00 37 1020.7
20210224153716 13 168 3.2 4.8 0.00 0.00 0.00 38 1020.7
20210224153523 13 184 3.2 6.4 0.00 0.00 0.00 38 1020.7
20210224153216 13 202 9.7 9.7 0.00 0.00 0.00 38 1020.7
20210224152725 13 191 4.8 8.0 0.00 0.00 0.00 39 1021.0
20210224152538 13 196 3.2 8.0 0.00 0.00 0.00 39 1021.0
20210224152215 13 179 4.8 4.8 0.00 0.00 0.00 41 1021.0
20210224151721 12 226 6.4 6.4 0.00 0.00 0.00 41 1021.0
20210224151521 12 181 6.4 8.0 0.00 0.00 0.00 41 1021.0
20210224151217 12 191 4.8 6.4 0.00 0.00 0.00 41 1021.0
20210224150717 12 195 8.0 8.0 0.00 0.00 0.00 41 1021.0
20210224150518 12 171 4.8 4.8 0.00 0.00 0.00 40 1021.0
20210224150216 12 185 4.8 4.8 0.00 0.00 0.00 41 1021.0
20210224145715 12 195 3.2 4.8 0.00 0.00 0.00 40 1021.0
20210224145516 12 196 3.2 4.8 0.00 0.00 0.00 40 1021.0
20210224145316 12 186 3.2 4.8 0.00 0.00 0.00 41 1021.0
20210224144723 12 178 3.2 4.8 0.00 0.00 0.00 40 1021.0
20210224144520 12 171 4.8 4.8 0.00 0.00 0.00 40 1021.0
20210224144216 12 202 3.2 3.2 0.00 0.00 0.00 41 1021.1
20210224143720 11 162 3.2 4.8 0.00 0.00 0.00 41 1021.1
20210224143518 11 188 3.2 3.2 0.00 0.00 0.00 42 1021.1
20210224143217 11 179 1.6 3.2 0.00 0.00 0.00 41 1021.1
20210224142904 11 210 3.2 4.8 0.00 0.00 0.00 43 1021.1
20210224142554 11 203 6.4 6.4 0.00 0.00 0.00 42 1021.1
20210224142218 11 193 3.2 6.4 0.00 0.00 0.00 44 1021.1
20210224141716 11 191 3.2 4.8 0.00 0.00 0.00 45 1021.1
20210224141523 11 189 3.2 4.8 0.00 0.00 0.00 45 1021.1
20210224141215 10 199 4.8 4.8 0.00 0.00 0.00 47 1020.8
20210224140717 10 210 4.8 6.4 0.00 0.00 0.00 46 1020.8
20210224140516 10 206 4.8 4.8 0.00 0.00 0.00 47 1020.8
20210224140217 10 176 4.8 6.4 0.00 0.00 0.00 46 1020.8
20210224135715 10 220 1.6 6.4 0.00 0.00 0.00 49 1020.9
20210224135520 10 191 1.6 4.8 0.00 0.00 0.00 49 1020.9
20210224135217 10 203 3.2 4.8 0.00 0.00 0.00 50 1020.9
20210224134717 9 191 3.2 3.2 0.00 0.00 0.00 50 1020.9
20210224134522 9 184 3.2 4.8 0.00 0.00 0.00 50 1020.9
20210224134216 9 184 1.6 3.2 0.00 0.00 0.00 50 1020.9
20210224133718 9 189 0.0 1.6 0.00 0.00 0.00 52 1020.9
20210224133520 8 189 0.0 1.6 0.00 0.00 0.00 52 1020.9
20210224133216 8 189 0.0 3.2 0.00 0.00 0.00 51 1020.9
20210224132941 8 189 1.6 3.2 0.00 0.00 0.00 52 1020.8
20210224132632 8 189 1.6 3.2 0.00 0.00 0.00 52 1020.8
20210224132217 8 189 3.2 3.2 0.00 0.00 0.00 53 1020.8
20210224131719 7 193 3.2 3.2 0.00 0.00 0.00 54 1020.8
20210224131521 7 193 3.2 3.2 0.00 0.00 0.00 54 1020.8
20210224131215 7 193 1.6 3.2 0.00 0.00 0.00 55 1020.6
20210224130715 7 193 1.6 3.2 0.00 0.00 0.00 56 1020.6
20210224130525 7 193 1.6 3.2 0.00 0.00 0.00 57 1020.6
20210224130217 7 184 1.6 1.6 0.00 0.00 0.00 57 1020.6
20210224125716 7 189 1.6 3.2 0.00 0.00 0.00 58 1020.5
20210224125608 7 191 1.6 3.2 0.00 0.00 0.00 58 1020.5
20210224125451 7 208 3.2 3.2 0.00 0.00 0.00 58 1020.5
20210224124745 6 208 1.6 3.2 0.00 0.00 0.00 59 1020.5
20210224124524 6 208 3.2 3.2 0.00 0.00 0.00 59 1020.5
20210224124220 6 210 1.6 3.2 0.00 0.00 0.00 59 1020.3
20210224123716 7 210 1.6 3.2 0.00 0.00 0.00 59 1020.3
20210224123526 7 210 1.6 3.2 0.00 0.00 0.00 59 1020.3
20210224123216 7 210 1.6 3.2 0.00 0.00 0.00 58 1020.3
20210224122937 7 210 0.0 1.6 0.00 0.00 0.00 58 1020.2
20210224122628 7 210 0.0 3.2 0.00 0.00 0.00 58 1020.2
20210224122215 7 210 0.0 3.2 0.00 0.00 0.00 58 1020.2
20210224121716 7 210 3.2 3.2 0.00 0.00 0.00 57 1020.2
20210224121511 7 210 3.2 4.8 0.00 0.00 0.00 56 1020.1
20210224121215 7 210 3.2 3.2 0.00 0.00 0.00 56 1020.1
20210224120717 7 206 1.6 1.6 0.00 0.00 0.00 54 1020.1
20210224120520 8 206 1.6 3.2 0.00 0.00 0.00 53 1020.1
20210224120218 8 206 1.6 3.2 0.00 0.00 0.00 53 1020.1
20210224115717 8 206 3.2 4.8 0.00 0.00 0.00 52 1019.9
20210224115517 8 206 3.2 4.8 0.00 0.00 0.00 52 1019.9
20210224115351 8 210 1.6 3.2 0.00 0.00 0.00 51 1019.9
20210224114737 8 193 4.8 4.8 0.00 0.00 0.00 51 1019.9
20210224114528 8 232 4.8 6.4 0.00 0.00 0.00 50 1019.7
20210224114220 8 222 4.8 8.0 0.00 0.00 0.00 50 1019.7
20210224113715 8 232 3.2 8.0 0.00 0.00 0.00 49 1019.7
20210224113523 8 212 4.8 8.0 0.00 0.00 0.00 49 1019.7
20210224113217 8 212 4.8 6.4 0.00 0.00 0.00 49 1019.7
20210224112728 9 233 6.4 6.4 0.00 0.00 0.00 48 1019.7
20210224112521 9 210 1.6 6.4 0.00 0.00 0.00 48 1019.7
20210224112216 9 210 3.2 8.0 0.00 0.00 0.00 48 1019.7
20210224111717 9 232 1.6 6.4 0.00 0.00 0.00 47 1019.7
20210224111522 9 226 4.8 8.0 0.00 0.00 0.00 47 1019.7
20210224111215 10 236 1.6 6.4 0.00 0.00 0.00 47 1019.5
20210224110717 10 224 4.8 4.8 0.00 0.00 0.00 46 1019.5
20210224110521 10 233 3.2 11.3 0.00 0.00 0.00 45 1019.5
20210224110240 10 224 3.2 4.8 0.00 0.00 0.00 45 1019.5
20210224105717 10 230 4.8 8.0 0.00 0.00 0.00 45 1019.4
20210224105512 10 261 4.8 9.7 0.00 0.00 0.00 45 1019.4
20210224105323 10 240 6.4 8.0 0.00 0.00 0.00 45 1019.4
20210224104716 10 227 9.7 11.3 0.00 0.00 0.00 45 1019.4
20210224104517 10 226 1.6 6.4 0.00 0.00 0.00 45 1019.4
20210224104217 10 251 4.8 9.7 0.00 0.00 0.00 46 1019.3
20210224103718 10 263 8.0 8.0 0.00 0.00 0.00 46 1019.3
20210224103516 10 246 6.4 16.1 0.00 0.00 0.00 46 1019.3
20210224103227 10 234 8.0 8.0 0.00 0.00 0.00 46 1019.3
20210224102814 10 250 9.7 9.7 0.00 0.00 0.00 46 1019.1
20210224102631 10 240 6.4 11.3 0.00 0.00 0.00 46 1019.1
20210224102215 10 205 6.4 12.9 0.00 0.00 0.00 45 1019.1
20210224101718 10 230 4.8 6.4 0.00 0.00 0.00 45 1019.1
20210224101522 10 234 6.4 8.0 0.00 0.00 0.00 45 1019.1
20210224101217 10 224 4.8 6.4 0.00 0.00 0.00 45 1018.9
20210224100717 10 224 6.4 6.4 0.00 0.00 0.00 45 1018.9
20210224100519 10 253 9.7 11.3 0.00 0.00 0.00 45 1018.9
20210224100220 10 233 8.0 8.0 0.00 0.00 0.00 45 1018.9
20210224095719 10 257 3.2 8.0 0.00 0.00 0.00 45 1018.8
20210224095520 10 223 8.0 9.7 0.00 0.00 0.00 44 1018.8
20210224095318 10 223 4.8 9.7 0.00 0.00 0.00 44 1018.8
20210224094718 11 227 6.4 11.3 0.00 0.00 0.00 44 1018.8
20210224094515 11 237 4.8 14.5 0.00 0.00 0.00 43 1018.8
20210224094217 11 226 6.4 11.3 0.00 0.00 0.00 43 1018.7
20210224093715 11 216 3.2 9.7 0.00 0.00 0.00 43 1018.7
20210224093519 11 248 9.7 11.3 0.00 0.00 0.00 43 1018.7
20210224093220 11 229 9.7 9.7 0.00 0.00 0.00 43 1018.7
20210224092726 11 234 6.4 9.7 0.00 0.00 0.00 43 1018.6
20210224092549 11 217 3.2 8.0 0.00 0.00 0.00 43 1018.6
20210224092222 11 215 6.4 9.7 0.00 0.00 0.00 43 1018.6
20210224091716 11 203 8.0 14.5 0.00 0.00 0.00 43 1018.6
20210224091523 11 216 8.0 11.3 0.00 0.00 0.00 43 1018.6
20210224091217 11 248 6.4 12.9 0.00 0.00 0.00 43 1018.4
20210224090715 11 223 8.0 8.0 0.00 0.00 0.00 43 1018.4
20210224090522 11 220 4.8 8.0 0.00 0.00 0.00 42 1018.4
20210224090215 11 219 8.0 11.3 0.00 0.00 0.00 42 1018.4
20210224085718 11 209 6.4 8.0 0.00 0.00 0.00 42 1018.3
20210224085519 11 222 3.2 8.0 0.00 0.00 0.00 42 1018.3
20210224085328 11 234 6.4 8.0 0.00 0.00 0.00 42 1018.3
20210224084725 11 205 4.8 9.7 0.00 0.00 0.00 41 1018.3
20210224084518 11 220 4.8 8.0 0.00 0.00 0.00 41 1018.3
20210224084221 11 220 6.4 8.0 0.00 0.00 0.00 41 1018.2
20210224083716 11 213 8.0 8.0 0.00 0.00 0.00 41 1018.2
20210224083517 11 212 4.8 8.0 0.00 0.00 0.00 41 1018.2
20210224083216 11 215 3.2 9.7 0.00 0.00 0.00 41 1018.2
20210224082825 11 239 4.8 9.7 0.00 0.00 0.00 40 1018.3
20210224082523 12 241 8.0 8.0 0.00 0.00 0.00 40 1018.3
20210224082216 12 236 4.8 8.0 0.00 0.00 0.00 40 1018.3
20210224081716 12 234 3.2 8.0 0.00 0.00 0.00 40 1018.3
20210224081514 12 216 3.2 8.0 0.00 0.00 0.00 39 1018.3
20210224081215 12 222 3.2 8.0 0.00 0.00 0.00 39 1018.3
20210224080717 12 223 6.4 9.7 0.00 0.00 0.00 39 1018.3
20210224080515 12 224 3.2 8.0 0.00 0.00 0.00 38 1018.3
20210224080217 12 208 4.8 9.7 0.00 0.00 0.00 38 1018.3
20210224075716 12 241 4.8 8.0 0.00 0.00 0.00 38 1018.3
20210224075521 12 220 4.8 9.7 0.00 0.00 0.00 38 1018.3
20210224075416 12 239 4.8 11.3 0.00 0.00 0.00 38 1018.3
20210224074716 12 227 4.8 11.3 0.00 0.00 0.00 38 1018.3
20210224074519 12 206 8.0 9.7 0.00 0.00 0.00 38 1018.3
20210224074216 12 232 6.4 9.7 0.00 0.00 0.00 37 1018.2
20210224073715 13 208 6.4 9.7 0.00 0.00 0.00 37 1018.2
20210224073524 13 234 8.0 9.7 0.00 0.00 0.00 36 1018.2
20210224073222 13 239 8.0 8.0 0.00 0.00 0.00 36 1018.2
20210224072821 13 237 4.8 14.5 0.00 0.00 0.00 36 1018.3
20210224072535 13 226 9.7 11.3 0.00 0.00 0.00 36 1018.3
20210224072216 13 208 4.8 11.3 0.00 0.00 0.00 35 1018.3
20210224071715 13 227 6.4 11.3 0.00 0.00 0.00 35 1018.3
20210224071520 13 222 11.3 11.3 0.00 0.00 0.00 35 1018.3
20210224071219 13 222 4.8 4.8 0.00 0.00 0.00 35 1018.5
20210224070717 13 258 4.8 11.3 0.00 0.00 0.00 35 1018.5
20210224070520 13 215 6.4 14.5 0.00 0.00 0.00 35 1018.5
20210224070216 13 229 11.3 16.1 0.00 0.00 0.00 35 1018.5
20210224065717 13 216 6.4 9.7 0.00 0.00 0.00 35 1018.3
20210224065528 13 257 6.4 8.0 0.00 0.00 0.00 35 1018.3
20210224065416 13 202 4.8 11.3 0.00 0.00 0.00 35 1018.3
20210224064717 13 202 4.8 9.7 0.00 0.00 0.00 35 1018.3
20210224064519 13 239 4.8 9.7 0.00 0.00 0.00 35 1018.3
20210224064217 13 233 8.0 8.0 0.00 0.00 0.00 35 1018.3
20210224063721 13 213 8.0 11.3 0.00 0.00 0.00 35 1018.3
20210224063519 13 232 6.4 16.1 0.00 0.00 0.00 35 1018.3
20210224063217 13 236 4.8 9.7 0.00 0.00 0.00 35 1018.3
20210224062809 13 219 4.8 8.0 0.00 0.00 0.00 35 1018.0
20210224062605 13 217 6.4 9.7 0.00 0.00 0.00 35 1018.0
20210224062220 13 219 4.8 6.4 0.00 0.00 0.00 35 1018.0
20210224061716 13 206 4.8 8.0 0.00 0.00 0.00 35 1018.0
20210224061521 13 215 4.8 6.4 0.00 0.00 0.00 35 1018.0
20210224061216 13 202 3.2 6.4 0.00 0.00 0.00 34 1018.2
20210224060719 13 212 3.2 6.4 0.00 0.00 0.00 34 1018.2
20210224060520 13 209 3.2 6.4 0.00 0.00 0.00 34 1018.2
20210224060215 13 217 3.2 8.0 0.00 0.00 0.00 34 1018.2
20210224055719 13 217 4.8 4.8 0.00 0.00 0.00 34 1018.1
20210224055515 13 205 3.2 6.4 0.00 0.00 0.00 34 1018.1
20210224055332 13 215 3.2 4.8 0.00 0.00 0.00 34 1018.1
20210224054716 13 222 1.6 4.8 0.00 0.00 0.00 34 1018.1
20210224054510 13 219 4.8 4.8 0.00 0.00 0.00 34 1018.1
20210224054215 13 217 3.2 4.8 0.00 0.00 0.00 34 1018.0
20210224053717 13 210 3.2 4.8 0.00 0.00 0.00 34 1018.0
20210224053519 13 212 4.8 4.8 0.00 0.00 0.00 34 1018.0
20210224053217 13 212 4.8 4.8 0.00 0.00 0.00 34 1018.0
20210224052917 13 208 3.2 4.8 0.00 0.00 0.00 34 1018.2
20210224052615 13 223 4.8 4.8 0.00 0.00 0.00 34 1018.2
20210224052218 13 232 4.8 6.4 0.00 0.00 0.00 34 1018.2
20210224051716 13 236 6.4 6.4 0.00 0.00 0.00 34 1018.2
20210224051518 13 233 3.2 4.8 0.00 0.00 0.00 34 1018.2
20210224051216 13 226 4.8 6.4 0.00 0.00 0.00 34 1018.4
20210224050716 13 215 4.8 6.4 0.00 0.00 0.00 34 1018.4
20210224050519 13 219 4.8 6.4 0.00 0.00 0.00 34 1018.4
20210224050218 13 223 3.2 6.4 0.00 0.00 0.00 34 1018.4
20210224045715 13 222 8.0 9.7 0.00 0.00 0.00 34 1018.3
20210224045534 13 223 3.2 6.4 0.00 0.00 0.00 34 1018.3
20210224045230 13 215 4.8 4.8 0.00 0.00 0.00 34 1018.3
20210224044716 13 213 4.8 6.4 0.00 0.00 0.00 34 1018.3
20210224044521 13 229 3.2 6.4 0.00 0.00 0.00 35 1018.3
20210224044218 13 236 3.2 6.4 0.00 0.00 0.00 35 1018.3
20210224043719 13 224 4.8 4.8 0.00 0.00 0.00 34 1018.3
20210224043522 13 215 3.2 4.8 0.00 0.00 0.00 34 1018.3
20210224043217 14 208 1.6 4.8 0.00 0.00 0.00 34 1018.3
20210224042725 14 208 3.2 4.8 0.00 0.00 0.00 34 1018.5
20210224042519 14 209 4.8 4.8 0.00 0.00 0.00 33 1018.5
20210224042221 14 213 1.6 4.8 0.00 0.00 0.00 33 1018.5
20210224041717 14 202 4.8 6.4 0.00 0.00 0.00 32 1018.5
20210224041518 15 210 4.8 4.8 0.00 0.00 0.00 32 1018.5
20210224041216 15 219 4.8 4.8 0.00 0.00 0.00 32 1018.6
20210224040716 15 208 1.6 8.0 0.00 0.00 0.00 32 1018.6
20210224040518 15 222 3.2 8.0 0.00 0.00 0.00 31 1018.6
20210224040217 15 230 4.8 6.4 0.00 0.00 0.00 31 1018.6
20210224035718 15 219 6.4 8.0 0.00 0.00 0.00 31 1018.6
20210224035519 15 243 3.2 8.0 0.00 0.00 0.00 31 1018.6
20210224035242 15 243 4.8 4.8 0.00 0.00 0.00 31 1018.6
20210224034717 15 234 6.4 6.4 0.00 0.00 0.00 31 1018.6
20210224034523 15 240 4.8 6.4 0.00 0.00 0.00 31 1018.6
20210224034216 15 226 4.8 4.8 0.00 0.00 0.00 31 1018.6
20210224033723 15 222 3.2 4.8 0.00 0.00 0.00 30 1018.6
20210224033522 15 233 1.6 4.8 0.00 0.00 0.00 30 1018.6
20210224033217 15 223 1.6 3.2 0.00 0.00 0.00 30 1018.6
20210224032759 15 236 3.2 6.4 0.00 0.00 0.00 30 1018.6
20210224032554 15 223 6.4 6.4 0.00 0.00 0.00 29 1018.6
20210224032217 15 234 4.8 4.8 0.00 0.00 0.00 29 1018.6
20210224031716 15 250 3.2 6.4 0.00 0.00 0.00 29 1018.6
20210224031519 15 253 3.2 6.4 0.00 0.00 0.00 29 1018.6
20210224031219 15 236 4.8 4.8 0.00 0.00 0.00 29 1018.6
20210224030716 15 250 4.8 6.4 0.00 0.00 0.00 29 1018.6
20210224030518 15 243 1.6 4.8 0.00 0.00 0.00 29 1018.6
20210224030216 15 247 3.2 6.4 0.00 0.00 0.00 29 1018.6
20210224025716 16 251 3.2 6.4 0.00 0.00 0.00 29 1018.6
20210224025515 16 237 8.0 8.0 0.00 0.00 0.00 29 1018.6
20210224025326 16 229 4.8 8.0 0.00 0.00 0.00 29 1018.6
20210224024716 16 237 4.8 6.4 0.00 0.00 0.00 29 1018.6
20210224024516 16 248 3.2 6.4 0.00 0.00 0.00 28 1018.6
20210224024218 16 230 6.4 9.7 0.00 0.00 0.00 28 1018.6
20210224023715 16 250 4.8 8.0 0.00 0.00 0.00 28 1018.6
20210224023520 16 239 3.2 6.4 0.00 0.00 0.00 28 1018.6
20210224023215 16 226 4.8 8.0 0.00 0.00 0.00 28 1018.6
20210224022859 16 258 3.2 6.4 0.00 0.00 0.00 28 1018.7
20210224022545 16 230 6.4 6.4 0.00 0.00 0.00 28 1018.7
20210224022216 16 237 6.4 9.7 0.00 0.00 0.00 28 1018.7
20210224021716 16 240 6.4 9.7 0.00 0.00 0.00 28 1018.7
20210224021523 16 246 4.8 6.4 0.00 0.00 0.00 28 1018.7
20210224021216 16 246 4.8 4.8 0.00 0.00 0.00 28 1018.7
20210224020715 16 226 4.8 6.4 0.00 0.00 0.00 27 1018.7
20210224020516 16 232 3.2 6.4 0.00 0.00 0.00 27 1018.7
20210224020217 16 233 4.8 4.8 0.00 0.00 0.00 28 1018.7
20210224015715 16 246 4.8 4.8 0.00 0.00 0.00 28 1018.7
20210224015519 16 233 4.8 6.4 0.00 0.00 0.00 28 1018.7
20210224015218 16 251 4.8 6.4 0.00 0.00 0.00 28 1018.7
20210224014720 16 253 1.6 6.4 0.00 0.00 0.00 28 1018.7
20210224014521 16 251 4.8 8.0 0.00 0.00 0.00 28 1018.7
20210224014226 16 244 8.0 9.7 0.00 0.00 0.00 28 1018.7
20210224013716 16 253 4.8 11.3 0.00 0.00 0.00 28 1018.7
20210224013510 16 239 4.8 11.3 0.00 0.00 0.00 28 1018.7
20210224013215 16 241 9.7 11.3 0.00 0.00 0.00 28 1018.7
20210224012919 16 261 3.2 3.2 0.00 0.00 0.00 27 1018.7
20210224012627 16 250 8.0 8.0 0.00 0.00 0.00 27 1018.7
20210224012219 16 254 4.8 6.4 0.00 0.00 0.00 27 1018.7
20210224011715 16 236 6.4 9.7 0.00 0.00 0.00 27 1018.7
20210224011525 16 239 4.8 8.0 0.00 0.00 0.00 27 1018.7
20210224011219 17 224 6.4 9.7 0.00 0.00 0.00 27 1018.6
20210224010719 17 223 4.8 9.7 0.00 0.00 0.00 27 1018.6
20210224010520 17 244 3.2 9.7 0.00 0.00 0.00 27 1018.6
20210224010219 17 239 4.8 9.7 0.00 0.00 0.00 27 1018.6
20210224005715 17 253 8.0 8.0 0.00 0.00 0.00 27 1018.5
20210224005510 17 257 4.8 8.0 0.00 0.00 0.00 26 1018.5
20210224005337 17 246 8.0 8.0 0.00 0.00 0.00 26 1018.5
20210224004715 17 234 3.2 4.8 0.00 0.00 0.00 26 1018.5
20210224004522 17 240 4.8 6.4 0.00 0.00 0.00 26 1018.5
20210224004217 17 244 6.4 8.0 0.00 0.00 0.00 26 1018.3
20210224003718 17 244 4.8 6.4 0.00 0.00 0.00 26 1018.3
20210224003519 17 239 4.8 4.8 0.00 0.00 0.00 26 1018.3
20210224003226 17 241 4.8 6.4 0.00 0.00 0.00 26 1018.3
20210224002754 17 254 6.4 8.0 0.00 0.00 0.00 26 1018.2
20210224002556 17 234 4.8 6.4 0.00 0.00 0.00 26 1018.2
20210224002218 17 239 6.4 8.0 0.00 0.00 0.00 26 1018.2
20210224001717 17 237 4.8 4.8 0.00 0.00 0.00 26 1018.2
20210224001529 17 220 4.8 4.8 0.00 0.00 0.00 26 1018.2
20210224001215 17 236 3.2 4.8 0.00 0.00 0.00 26 1018.1
20210224000724 17 234 4.8 4.8 0.00 0.00 0.00 26 1018.1
20210224000522 17 246 3.2 4.8 0.00 0.00 0.00 26 1018.1
20210224000217 17 250 3.2 4.8 0.00 0.00 0.00 26 1018.1
20210223235716 18 244 3.2 4.8 0.00 0.00 0.00 25 1017.8
20210223235516 18 232 3.2 4.8 0.00 0.00 0.00 25 1017.8
20210223235216 18 229 3.2 6.4 0.00 0.00 0.00 25 1017.8
20210223234718 18 247 3.2 3.2 0.00 0.00 0.00 25 1017.8
20210223234520 18 247 3.2 4.8 0.00 0.00 0.00 25 1017.8
20210223234216 18 243 4.8 4.8 0.00 0.00 0.00 25 1017.9
20210223233715 18 244 1.6 3.2 0.00 0.00 0.00 25 1017.9
20210223233522 18 244 3.2 4.8 0.00 0.00 0.00 24 1017.9
20210223233215 18 260 4.8 4.8 0.00 0.00 0.00 24 1017.9
20210223232913 19 263 6.4 6.4 0.00 0.00 0.00 24 1017.7
20210223232618 19 248 4.8 4.8 0.00 0.00 0.00 23 1017.7
20210223232217 19 244 4.8 6.4 0.00 0.00 0.00 23 1017.7
20210223231716 19 234 3.2 4.8 0.00 0.00 0.00 23 1017.7
20210223231521 19 258 4.8 4.8 0.00 0.00 0.00 23 1017.7
20210223231217 20 265 3.2 3.2 0.00 0.00 0.00 23 1017.7
20210223230720 20 265 1.6 4.8 0.00 0.00 0.00 22 1017.7
20210223230518 20 311 3.2 4.8 0.00 0.00 0.00 22 1017.7